Flag for Russia Weather past 2 weeks in Nizhny Novgorod, Russia

Now
77 °F

Partly sunny.


Feels Like: 79 °F
Forecast: 67 / 82 °F
Wind: 1 mph from North

Location: Nizhny Novgorod/Strigino

Current Time: Aug 2, 2014 at 11:05:14 AM

Latest Report: Aug 2, 2014 at 10:30 AM


Visibility: N/A

Pressure: 30.07 "Hg

Humidity: 65%

Dew point: 64 °F

Location of Nizhny NovgorodLocation

Historic Weather in Nizhny Novgorod — Graph

°F

Nizhny Novgorod temperature yesterday

Maximum temperature yesterday: 86 °F (at 3:30 PM)
Minimum temperature yesterday: 61 °F (at 5:00 AM)
Average temperature yesterday: 75 °F

Past Weeks' High & Low Weather Summary

 TemperatureHumidityPressure
High88 °F (Jul 29, 2:30 PM)100% (Jul 19, 3:30 AM)30.15 "Hg (Jul 19, 3:30 AM)
Low43 °F (Jul 22, 4:00 AM)27% (Jul 20, 1:30 PM)29.83 "Hg (Jul 20, 5:00 PM)
Average66 °F65%30.00 "Hg
* Reported Jul 18 9:00 AM — Aug 2 9:30 AM, Nizhny Novgorod, Weather by CustomWeather, © 2014

Note: Actual official high and low records may vary slightly from our data, if they occured in-between our weather recording intervals... More about our weather records

Advertising

Nizhny Novgorod weather history for previous 24 hours

 ConditionsComfort  
Time TempWeatherWind HumidityBarometerVisibility
9:30 AM
Aug 2
75 °FPartly sunny.1 mph69%30.07 "HgN/A
9:00 AM75 °FPartly sunny.No wind69%30.07 "Hg6 mi
8:30 AM72 °FPartly sunny.1 mph78%30.07 "Hg6 mi
8:00 AM72 °FPartly sunny.3 mph78%30.07 "HgN/A
7:30 AM70 °FScattered clouds.3 mph78%30.07 "Hg6 mi
7:00 AM66 °FScattered clouds.No wind94%30.07 "Hg6 mi
6:30 AM64 °FScattered clouds.1 mph94%30.07 "Hg6 mi
6:00 AM63 °FFog.1 mph94%30.07 "Hg5 mi
5:30 AM63 °FFog.1 mph94%30.07 "Hg6 mi
5:00 AM61 °FFog.1 mph94%30.04 "Hg3 mi
4:30 AM61 °FFog.1 mph94%30.04 "Hg3 mi
4:00 AM61 °FPassing clouds.No wind94%30.04 "Hg4 mi
3:30 AM64 °FPassing clouds.3 mph88%30.04 "HgN/A
3:00 AM63 °FPassing clouds.3 mph94%30.04 "HgN/A
2:30 AM63 °FPassing clouds.No wind94%30.04 "Hg6 mi
2:00 AM63 °FPassing clouds.3 mph94%30.04 "HgN/A
1:30 AM64 °FPassing clouds.1 mph88%30.04 "HgN/A
1:00 AM64 °FPassing clouds.3 mph88%30.04 "HgN/A
12:30 AM68 °FPassing clouds.1 mph78%30.04 "HgN/A
12:00 AM72 °FPassing clouds.3 mph69%30.04 "HgN/A
11:30 PM
Aug 1
73 °FPassing clouds.3 mph65%30.04 "HgN/A
11:00 PM75 °FPassing clouds.3 mph61%30.04 "HgN/A
10:30 PM72 °FPartly cloudy.3 mph73%30.04 "HgN/A
10:00 PM72 °FBroken clouds.No wind73%30.04 "Hg6 mi
9:30 PM73 °FBroken clouds.No wind65%30.04 "HgN/A
9:00 PM79 °FBroken clouds.1 mph54%30.04 "HgN/A
8:30 PM79 °FBroken clouds.No wind58%30.01 "HgN/A
8:00 PM81 °FBroken clouds.No wind54%30.01 "HgN/A
7:30 PM81 °FBroken clouds.No wind58%30.01 "HgN/A
7:00 PM77 °FPartly sunny.No wind74%30.01 "HgN/A
6:30 PM82 °FPartly sunny.No wind51%30.01 "Hg6 mi
6:00 PM84 °FPartly sunny.1 mph43%30.01 "HgN/A
5:30 PM86 °FPartly sunny.3 mph40%30.01 "HgN/A
5:00 PM86 °FPartly sunny.3 mph40%30.01 "HgN/A
4:30 PM86 °FPartly sunny.3 mph43%30.04 "HgN/A
4:00 PM84 °FPartly sunny.1 mph43%30.04 "HgN/A
3:30 PM86 °FPartly sunny.6 mph40%30.04 "Hg4 mi
3:00 PM84 °FScattered clouds.3 mph45%30.04 "HgN/A
2:30 PM84 °FScattered clouds.6 mph45%30.04 "HgN/A
2:00 PM84 °FScattered clouds.8 mph45%30.04 "HgN/A
1:30 PM84 °FScattered clouds.6 mph43%30.07 "HgN/A
1:00 PM82 °FScattered clouds.6 mph48%30.07 "HgN/A
12:30 PM81 °FScattered clouds.6 mph51%30.07 "HgN/A
12:00 PM81 °FScattered clouds.6 mph51%30.07 "HgN/A
11:30 AM81 °FScattered clouds.8 mph51%30.07 "HgN/A
11:00 AM79 °FScattered clouds.8 mph54%30.07 "HgN/A
Weather by CustomWeather, © 2014

See weather overviewHow to use our weather pages